Погода в Пензе

Погода в Пензе : погода сейчас, прогноз погоды и архив. Всё, что Вы хотите узнать о погоде в Пензе!

Хотите узнать прогноз погоды в Пензе? Тогда Вам сюда: Погода в Пензе

Поиск расширенной информации на нашем сайте:

Другие новости

Новости СМИ2

Главная страница сайта

Новости сайта

03.07.2017

Напоминаем, что на нашем специализированном сайте Метеоцентр.Азия вы можете получить высокодетализированные автоматические прогнозы погоды по пунктам России, СНГ и мира в авиационном формате (включающие направление и скорость ветра, видимость, явления погоды, количество и форму облачности, нижнюю и верхнюю границу облачности).

Рекомендуем: Нижегородская типография ОЛИВЕР: печать листовок.

Погода в Пензе - сегодня

Время (UTC), дата Ветер
(°,м/с) 
Видим.   Явления Облачность Т
(°С)
Тd
(°С)
f(%) Тe
(°С)
Pmin
(гПа)
dP
(гПа)
Po
(мм)
O2
(г/м3)
Тmin Tmax R s Состояние
почвы
09 18.07.17 340 (С) 10 км    5/5 600 м кучево-дожд. 
[Cb cap]
+21.5 +13.3 60 +27  1015.8  0.2  747  276           
12 18.07.17 360 (С) 10 км    5/5 600 м кучево-дожд. 
[Cb cap]
+23.5 +11.7 47 +27  1015.8  0.1  747  275           
15 18.07.17 320 (СЗ) 10 км    3/3 600 м кучево-дожд. 
[Cb cap]
+22.8 +10.9 47 +25  1015.7  0.1  747  276    +23.6  0.0     
18 18.07.17 300 (СЗ) 10 км    ясно 
+18.2 +13.8 75 +27  1016.8  0.7  747  280           
21 18.07.17 260 (З) 10 км    ясно 
+14.4 +12.5 88 +21  1017.4  0.4  748  284           
00 19.07.17 тихо ()   10 км    ясно 
+11.8 +10.5 92 +14  1018.2  0.5  748  287           
03 19.07.17 280 (З) 10 км    ясно 
+13.5 +12.6 94 +20  1018.2  0.1  748  285  +11        влажная 
06 19.07.17 310 (СЗ) 10 км    ясно 
+22.2 +12.5 54 +27  1017.7  0.1  748  276           
09 19.07.17 350 (С) 10 км    4/4 1000 м 
[Cu med, cong]
+24.6 +10.9 42 +27  1016.9  -0.6  748  274           
12 19.07.17 020 (С) 10 км    5/5 1140 м 
[Cu med, cong]
+24.9 +10.9 41 +27  1015.9  -1  747  274           
15 19.07.17 130 (ЮВ) 10 км    5/5 1200 м 
[Cu med, cong]
+24.8 +11.8 44 +29  1015.1  -0.7  747  274    +25.7       
18 19.07.17 тихо ()   10 км    4/0 средняя 
[Ac As]
+19.4 +14.5 73 +27  1016  0.5  747  278           
21 19.07.17 тихо ()   10 км    ясно 
+15.2 +13.6 90 +22  1016  -0.3  747  282           
00 20.07.17 330 (СЗ) 10 км    ясно 
+14.1 +12.6 91 +20  1015.9  -0.2  747  284           
03 20.07.17 070 (В) 10 км    ясно 
+17.4 +14.2 81 +25  1015.7  0.1  747  280  +12.7        сухая 
06 20.07.17 090 (В) 10 км    3/0 верхняя 
[Ci fib]
+22.5 +14.8 62 +31  1014.9  -0.5  746  275           
09 20.07.17 150 (ЮВ) 10 км    8/5 600 м верхняя 
[Cu med, cong|Cs]
+24.5 +14 52 +32  1014.1  -0.6  746  273           
12 20.07.17 050 (СВ) 10 км    8/8 600 м кучево-дожд. 
[Cb cap]
+26.5 +12 40 +31  1012.8  -1.2  745  271           
15 20.07.17 080 (В) 10 км    8/4 600 м кучево-дожд., средняя, верхняя 
[Cb cap|Ac trans|Cs]
+24.7 +12.2 46 +29  1012.5  -0.4  745  273    +26.6       
18 20.07.17 030 (СВ) 10 км    4/0 средняя, верхняя 
[Ac trans|Cs]
+22 +13.3 58 +28  1013.1  0.4  745  275           
21 20.07.17 260 (З) 10 км    3/0 средняя 
[Ac trans]
+16.3 +14 86 +25  1013.7  0.2  745  280           
00 21.07.17 310 (СЗ) 10 км    5/0 средняя 
[Ac trans]
+14.9 +13.4 91 +22  1013.1  -0.6  745  282           
03 21.07.17 290 (З) 10 км    4/0 средняя 
[Ac trans]
+15.5 +14.4 93 +25  1013.6  0.5  745  281  +13.5        сухая 
06 21.07.17 020 (С) 10 км    ясно 
+23.1 +12.6 52 +28  1013  0.1  745  274           
09 21.07.17 020 (С) 10 км    8/8 600 м 
[Cu hum]
+25.4 +10.7 40 +28  1012.7  0.1  745  273           
Время (UTC), дата Ветер
(°,м/с) 
Видим.   Явления Облачность Т
(°С)
Тd
(°С)
f(%) Тe
(°С)
Pmin
(гПа)
dP
(гПа)
Po
(мм)
O2
(г/м3)
Тmin Tmax R s Состояние
почвы

Для получения пояснительной информации подведите курсор к названию столбца.

ПОГОДА в Пензе - архив

Всё, что Вы хотите узнать о погоде в Пензе - удобно и подробно!

Выберите нужную дату (начиная с 1 января 2015* года) и нажмите кнопку "Найти".
Будут отображены архивные сводки погоды по пункту Пенза, начиная с указанной даты.


Отображать данные в формате CSV (для использования в таблицах Excel)


Внимание! Наш архив погоды предназначен исключительно для личного некоммерческого использования в познавательных целях. Если Вам необходимы официальные справки о состоянии погоды (для производственных, юридических, коммерческих и т.п. целей), обращайтесь в органы Росгидромета.

*Примечание: данная дата относится к архиву по метеостанциям СССР (Россия, СНГ, Балтия).
Архив по метеостанциям Зарубежной Европы и Азии (кроме Китая) хранится 10 дней, по другим регионам земного шара (Китай, Африка, Америка, Австралия, Океания) - 1 день.

Пенза - район местоположения метеостанции


Название, широта, долгота, высота метеостанции:
Пенза (Терновка) 53.1°ш. 45°д. 177 м над ур. моря [Российская Федерация]

Дополнительная информация

В oтличие oт бoльшинства пoгoдных сайтoв мы публикуем пoдрoбную метеoинфoрмацию в детальнoм прoфессиoнальнoм фoрмате.

Характеристики температуры и влажнoсти вoздуха измеряются на высoте 2 м в тени вдали oт зданий и деревьев.
Скoрoсть ветра измеряется на высoте 10 м (на урoвне рoста челoвека скoрoсть ветра ниже в 1.5-2 раза). Если метеoстанция нахoдится в гoрoде или в лесу, тo скoрoсть ветра занижена на 2-4 м/с пo сравнению с oткрытым местoм. Скoрoсть ветра над акватoриями крупных рек и oзёр, а также на вершинах хoлмoв на 2-5 м/с выше, чем в oбычных услoвиях.
Атмoсфернoе давление в разных тoчках местнoсти мoжет значительнo oтличаться oт давления на метеoстанции, в зависимoсти oт услoвий рельефа (при пoдъёме на 10 м давление пoнижается примернo на 1 мм рт.ст.).